This is the latest recevied weather packets stored in our database for station/object KC2WGU. If no packets are shown the sender has not sent any weather packets the latest 10 day(s).
| Time | Temp. | Humidity | Pressure | Rain* | Wind** | Luminosity | Snow |
|---|---|---|---|---|---|---|---|
| 1778034023 | 12.22° C | 82% | 1007.7 hPa | 0 mm | - | 0 W/m² | - |
| 1778033423 | 12.78° C | 81% | 1007.7 hPa | 0 mm | - | 0 W/m² | - |
| 1778032823 | 12.78° C | 81% | 1007.7 hPa | 0 mm | - | 0 W/m² | - |
| 1778032223 | 12.78° C | 81% | 1007.7 hPa | 0 mm | - | 0 W/m² | - |
| 1778031621 | 13.33° C | 80% | 1007.3 hPa | 0 mm | - | 0 W/m² | - |
| 1778031022 | 13.89° C | 81% | 1006.9 hPa | 0 mm | - | 0 W/m² | - |
| 1778030422 | 13.89° C | 82% | 1006.8 hPa | 0 mm | - | 0 W/m² | - |
| 1778029822 | 15° C | 83% | 1006.5 hPa | 0 mm | - | 0 W/m² | - |
| 1778029222 | 15.56° C | 84% | 1006 hPa | 0 mm | - | 0 W/m² | - |
| 1778028621 | 16.11° C | 85% | 1005.9 hPa | 0.25 mm | - | 0 W/m² | - |
| 1778028022 | 16.11° C | 84% | 1005.4 hPa | 0.25 mm | - | 0 W/m² | - |
| 1778027423 | 16.11° C | 83% | 1005.2 hPa | 0.25 mm | - | 0 W/m² | - |
| 1778026821 | 16.67° C | 82% | 1005.2 hPa | 0.25 mm | - | 0 W/m² | - |
| 1778026222 | 16.67° C | 82% | 1005.3 hPa | 0.25 mm | - | 0 W/m² | - |
| 1778025623 | 16.67° C | 82% | 1004.7 hPa | 0.25 mm | - | 1 W/m² | - |
| 1778025021 | 17.22° C | 79% | 1004.7 hPa | 0 mm | - | 2 W/m² | - |
| 1778024423 | 17.22° C | 77% | 1004.7 hPa | 0 mm | - | 6 W/m² | - |
| 1778023824 | 17.78° C | 76% | 1004.6 hPa | 0 mm | - | 7 W/m² | - |
| 1778023223 | 17.78° C | 76% | 1004.3 hPa | 0 mm | - | 26 W/m² | - |
| 1778022622 | 17.78° C | 76% | 1004.3 hPa | 0 mm | - | 58 W/m² | - |
| 1778022024 | 17.78° C | 78% | 1004.3 hPa | 0 mm | - | 95 W/m² | - |
| 1778021422 | 17.22° C | 78% | 1004.1 hPa | 0 mm | - | 84 W/m² | - |
| 1778020822 | 17.22° C | 79% | 1004.1 hPa | 0 mm | - | 94 W/m² | - |
| 1778020222 | 17.78° C | 80% | 1004.2 hPa | 0 mm | - | 105 W/m² | - |
| 1778019622 | 17.22° C | 81% | 1004.2 hPa | 0.25 mm | - | 153 W/m² | - |
* Rain latest hour (hover to see other rain measurements)
** Current wind speed in m/s (hover to see current wind gust speed)